STARLINK-32023

Last updated on Fri Aug 02 2024 00:02:05 GMT+0000 (Coordinated Universal Time)

1 60197U 24124Q 24214.21146943 -.00953367 00000+0 -20115-1 0 9993 2 60197 53.1607 170.6977 0001579 78.0901 282.0284 15.47226282 4538

Satellite not in orbit